GFSNIL_con_3kmhel_000.txt.gz
Helicity
237 207 211 200 213 193 205 187 171 153 136 132 133 133 130 145 157 149 168 127 126 124
247 225 196 175 155 172 156 158 145 135 123 121 123 121 124 164 165 152 165 157 117 132
228 182 154 135 167 160 146 123 119 113 109 106 103 103 114 139 135 124 144 137 114 115
175 157 162 171 147 123 119 100 102 93 92 90 90 93 102 95 93 101 110 113 115 106
181 169 154 155 128 100 87 83 77 82 86 82 82 81 84 84 90 95 96 98 104 111
170 160 148 117 90 75 74 82 86 88 88 85 89 90 93 94 93 96 102 102 100 103
154 145 123 92 71 79 89 92 89 89 87 88 90 99 94 91 97 115 140 133 126 111
158 128 97 65 76 92 89 94 85 81 82 88 106 113 105 119 121 -45 -77 -7 41 46
150 118 90 71 95 93 87 79 78 79 86 96 116 104 118 -21 -119 -47 -65 -79 58 83
136 113 89 83 103 90 76 70 73 82 99 95 41 -54 -94 -67 89 68 50 78 83 70
114 107 87 103 94 82 75 84 84 91 82 -100 -109 -74 -42 -28 57 57 87 100 91 82
113 105 98 92 85 70 90 89 86 72 -105 -102 -72 -33 -18 -31 69 92 99 106 110 102
92 93 87 82 71 81 95 90 72 -90 -98 -75 -53 26 9 34 98 113 114 87 89 77
96 85 91 72 79 89 88 60 -85 -83 -60 -6 28 86 82 74 113 102 87 94 92 111

GFSNIL_con_3kmhel_003.txt.gz
Helicity
280 307 255 254 247 210 194 166 160 148 126 112 113 112 119 137 139 119 126 111 119 128
408 299 304 278 253 226 212 153 110 122 126 104 99 102 104 131 126 131 139 143 145 145
357 298 221 258 225 194 174 146 134 134 112 116 114 107 107 137 118 123 136 137 127 123
309 268 229 237 221 182 181 145 117 104 103 112 110 103 113 108 100 101 101 103 103 98
277 280 249 222 211 176 119 104 78 71 82 96 97 97 94 98 99 102 109 113 115 117
342 327 209 197 133 115 101 76 65 80 100 102 101 98 101 99 107 116 121 124 128 128
316 201 204 148 125 103 84 76 73 93 102 103 96 96 97 100 107 115 130 157 185 185
173 203 121 112 119 101 93 92 82 94 92 88 102 111 112 127 139 139 168 187 171 127
222 131 110 138 114 97 105 92 98 93 86 95 115 126 136 142 146 153 -32 -45 -17 32
121 113 131 104 96 101 101 102 86 86 102 108 99 101 118 57 -94 -92 -80 -71 72 97
117 122 92 107 99 101 101 86 89 107 107 95 101 38 -85 -71 -94 -41 39 82 95 96
128 103 100 98 99 90 93 85 109 113 95 90 -64 -92 -60 -56 48 49 81 97 104 102
102 101 109 105 89 88 83 113 133 94 86 -103 -109 -22 33 17 126 117 143 144 128 99
98 106 111 80 78 82 105 110 98 89 -79 -86 -36 6 2 12 57 80 79 78 99 108

GFSNIL_con_3kmhel_006.txt.gz
Helicity
406 461 429 388 402 514 439 342 322 210 248 179 173 141 121 129 143 142 144 116 110 105
411 494 603 615 596 424 328 265 376 377 250 140 116 122 128 157 162 154 140 128 119 105
542 664 734 793 646 428 378 358 238 262 131 130 122 118 129 165 165 164 162 145 127 122
574 601 616 497 472 443 370 271 168 124 128 99 102 112 131 147 151 150 141 133 122 114
539 484 416 420 383 350 192 125 133 99 89 95 109 122 136 145 139 138 132 122 118 108
389 325 333 369 342 190 136 142 104 106 113 119 132 136 138 129 125 124 123 124 121 121
283 258 276 249 287 180 108 106 122 128 131 137 134 125 121 118 126 134 145 159 161 168
396 323 202 295 170 130 134 136 127 134 135 144 143 136 134 167 179 175 166 175 187 175
241 258 260 168 134 134 125 144 149 152 146 133 137 157 155 152 151 151 153 132 112 87
143 120 179 147 128 123 146 155 159 148 137 142 159 160 157 137 118 82 -81 -90 -60 -31
123 154 159 136 140 146 162 162 144 139 152 172 167 106 75 65 -59 -92 -9 82 96 101
185 153 140 136 150 155 149 130 133 178 167 121 110 84 -47 -43 -38 41 119 161 174 165
149 134 132 163 148 136 124 140 173 120 129 100 -41 -78 -22 16 84 21 131 70 112 82
120 131 149 142 122 124 133 139 128 142 104 67 -96 -63 -12 5 24 49 62 96 101 108

GFSNIL_con_3kmhel_009.txt.gz
Helicity
244 341 418 524 550 608 659 643 663 749 554 480 505 524 324 152 139 122 132 130 149 146
140 252 433 581 689 757 745 773 773 794 560 570 315 117 110 128 126 121 123 143 163 157
311 411 511 609 710 767 782 777 804 498 261 121 116 97 100 121 115 128 150 147 157 147
402 425 458 523 512 489 417 258 150 89 67 90 111 90 113 127 126 136 134 146 134 127
458 425 399 361 340 342 252 184 125 104 109 100 108 121 126 123 125 123 121 117 130 110
404 342 309 299 244 219 185 157 82 65 87 105 115 121 124 122 124 125 124 118 123 109
304 298 310 315 308 230 138 114 107 100 109 119 119 118 120 114 119 134 145 153 150 136
539 420 355 304 261 176 129 114 116 120 123 128 128 118 112 135 135 138 127 113 106 104
437 410 369 235 119 107 107 120 122 121 134 127 121 127 196 184 129 111 115 107 96 99
228 205 43 -10 46 108 120 129 130 121 112 118 153 150 102 64 98 133 158 148 -73 -78
86 -13 61 124 127 130 143 132 109 113 125 134 107 71 66 85 141 42 -34 44 50 18
121 152 132 136 147 136 120 104 117 120 110 97 100 61 65 -49 -80 17 61 74 80 -11
167 144 156 150 131 115 122 115 109 109 122 90 96 70 -63 -23 51 35 87 73 78 57
135 150 149 126 115 111 105 106 118 105 80 93 102 -84 -44 -7 60 91 101 109 128 109

GFSNIL_con_3kmhel_012.txt.gz
Helicity
190 194 201 208 245 399 533 665 822 885 795 753 568 508 628 653 389 224 229 190 206 142
185 159 145 206 307 480 727 848 888 792 712 553 419 260 80 88 111 167 187 165 139 148
226 240 267 337 414 556 658 668 669 671 536 323 -49 -22 52 118 158 170 154 136 129 130
282 328 396 400 415 400 392 393 312 107 -44 -3 30 62 111 126 118 121 124 130 122 118
292 346 356 334 307 286 255 243 67 -6 17 77 101 92 99 112 116 123 122 117 124 117
257 272 303 317 294 245 186 134 90 85 96 102 100 103 105 116 122 130 121 118 112 102
298 319 331 314 256 219 206 175 120 101 107 109 110 114 110 110 120 130 127 121 118 113
429 448 459 422 394 309 175 103 102 106 122 123 118 106 126 140 128 122 109 97 89 84
386 370 358 242 153 24 30 80 115 133 118 109 106 119 132 134 128 110 105 113 105 103
100 64 -64 -68 -43 -4 61 109 113 104 96 89 96 85 77 84 102 115 131 134 138 50
54 46 21 10 63 107 115 110 102 82 83 99 88 68 68 67 101 133 136 9 70 82
145 131 121 135 128 122 116 99 90 94 89 82 83 53 64 75 106 -7 18 74 82 98
121 132 126 122 118 106 100 99 105 109 97 67 79 65 56 85 -43 -23 58 73 89 68
116 116 114 109 103 98 100 111 117 92 72 78 95 89 59 -27 -15 8 4 86 38 99

GFSNIL_con_3kmhel_015.txt.gz
Helicity
170 176 182 187 193 180 239 364 528 736 846 821 782 885 784 540 556 320 201 155 143 157
177 172 170 193 214 247 342 443 554 597 627 620 645 561 368 206 165 36 63 87 127 170
124 147 181 247 269 299 352 396 403 421 403 384 322 95 -19 -22 -12 11 94 137 140 146
122 160 236 267 308 342 313 273 260 232 196 69 -141 -28 40 77 88 109 118 121 120 120
89 173 256 259 237 236 229 216 157 147 106 80 67 93 106 105 110 122 125 112 115 115
112 182 222 275 286 283 289 233 160 128 130 121 126 121 119 129 129 116 117 122 126 121
170 225 262 338 378 415 358 237 184 125 112 117 114 116 114 109 115 125 124 122 117 115
251 339 456 543 472 336 189 113 106 101 107 110 101 96 123 129 129 126 122 111 100 92
209 193 138 140 41 -34 -127 -42 70 119 114 104 102 93 89 97 119 115 109 104 89 97
112 100 72 53 27 16 53 107 127 117 108 100 96 82 87 88 114 124 115 108 107 95
106 106 102 98 118 125 124 120 109 102 100 100 90 82 76 69 105 118 111 109 105 36
142 152 148 140 113 112 118 109 101 90 96 95 82 60 58 71 101 101 97 65 54 63
157 140 122 103 100 104 103 93 99 104 97 76 81 60 57 77 97 92 12 13 28 29
136 112 106 100 103 102 103 106 98 87 71 73 74 73 59 50 83 16 -12 4 43 77

GFSNIL_con_3kmhel_018.txt.gz
Helicity
137 128 126 124 118 149 196 237 267 357 406 438 477 477 492 513 558 630 398 493 238 188
103 72 64 90 133 201 252 272 311 326 325 305 291 265 286 318 293 256 203 30 -74 -103
60 67 82 100 108 169 232 308 311 256 207 176 146 92 88 57 22 -21 -60 -30 28 42
65 68 98 109 141 223 248 211 176 154 158 119 81 63 49 54 56 53 80 83 77 80
65 58 99 126 172 200 233 267 232 277 209 138 122 122 103 88 92 87 75 61 70 77
48 61 122 210 275 327 366 353 333 231 138 109 109 106 114 101 87 81 82 85 94 104
91 149 259 337 378 423 405 276 148 90 105 106 97 97 84 80 74 76 80 84 94 98
142 156 176 190 179 154 71 45 27 -2 23 93 85 74 76 75 86 99 101 101 98 91
137 123 83 83 72 74 61 58 78 102 105 97 91 100 95 89 90 98 108 108 91 88
155 123 123 121 119 128 118 114 113 106 105 91 80 73 63 67 101 112 104 92 86 81
107 96 120 143 140 121 122 115 99 92 91 91 77 59 59 62 97 99 82 81 82 92
126 125 114 135 124 103 101 94 93 93 86 81 63 45 51 71 82 69 69 68 80 73
147 131 133 123 91 89 93 86 93 90 87 59 60 35 50 70 62 60 59 51 46 17
170 136 117 82 93 92 90 94 90 85 70 56 50 50 56 59 53 51 51 47 26 15

GFSNIL_con_3kmhel_021.txt.gz
Helicity
130 108 83 57 56 77 97 118 163 215 228 248 263 276 270 253 238 270 284 316 330 306
98 72 47 27 60 82 80 117 167 222 216 184 173 145 127 106 104 97 117 155 92 32
54 32 46 51 43 57 100 183 228 268 239 181 138 121 67 36 16 0 -24 -67 -140 -195
89 60 22 18 82 138 169 178 204 206 249 235 222 141 109 102 66 42 37 20 13 10
74 44 46 96 128 182 264 278 284 263 178 133 56 35 80 75 69 63 56 53 54 51
109 97 102 158 218 231 261 233 179 107 56 42 49 71 77 89 84 71 62 58 60 64
137 79 117 144 123 100 103 74 83 75 57 48 56 73 79 70 53 45 48 55 58 65
94 120 132 85 74 62 84 88 86 89 82 87 79 82 64 53 53 55 56 64 70 76
168 145 125 118 77 78 72 97 106 105 98 84 80 93 86 80 69 60 59 54 49 50
103 98 107 116 107 101 115 117 103 94 88 79 82 76 64 60 60 61 56 46 41 46
126 123 126 117 112 113 117 95 85 78 80 79 76 69 64 59 52 57 41 31 33 36
141 152 136 127 119 100 78 74 71 74 79 76 68 66 57 54 54 43 26 26 30 37
146 123 110 106 87 83 74 76 88 86 79 67 67 51 52 55 50 32 27 21 22 30
110 97 94 90 86 81 79 88 86 82 78 67 57 48 52 62 60 47 25 14 17 19

GFSNIL_con_3kmhel_027.txt.gz
Helicity
168 189 177 169 153 126 99 91 76 91 199 270 366 334 254 197 162 112 125 120 122 128
123 108 92 118 117 106 94 80 203 321 334 299 252 233 216 188 138 99 59 68 65 51
117 100 123 147 136 155 174 266 227 246 217 175 138 107 86 81 101 126 150 124 113 86
123 119 146 141 177 171 236 207 176 129 120 103 80 67 54 42 39 46 63 73 57 54
102 123 153 238 218 175 153 107 110 79 57 76 90 76 79 83 94 96 80 85 98 77
105 172 158 149 124 133 91 72 55 87 106 110 127 111 137 122 119 124 104 88 74 63
196 135 186 186 179 138 117 108 59 48 86 102 123 112 99 126 119 83 69 65 61 58
156 106 98 101 97 92 95 116 97 97 100 106 102 112 188 143 99 68 64 65 64 67
157 144 139 125 106 131 126 121 104 89 92 94 88 221 185 135 106 81 73 75 71 72
123 152 156 151 135 110 100 90 84 83 91 102 93 215 159 120 93 86 74 71 71 65
161 115 96 119 108 116 88 86 87 90 114 107 98 171 140 112 77 84 72 76 70 65
59 126 119 120 119 87 87 87 89 109 115 95 82 128 127 88 95 94 78 65 68 54
133 143 121 124 93 90 86 88 122 126 83 71 71 77 88 74 92 85 77 63 46 33
145 140 149 109 87 80 77 92 168 106 87 73 84 96 69 84 88 77 60 47 38 30

GFSNIL_con_3kmhel_030.txt.gz
Helicity
242 155 152 139 160 142 144 145 267 192 167 191 207 207 196 167 158 141 119 90 61 79
147 167 150 165 168 149 164 200 221 153 147 163 163 142 112 110 120 115 127 140 158 91
150 149 144 140 176 257 228 176 147 141 135 134 131 94 74 80 72 80 90 113 84 89
137 136 157 218 247 234 175 163 138 140 128 77 68 62 74 94 107 81 104 120 109 108
137 150 203 187 200 150 150 137 155 142 111 96 89 85 103 140 140 127 164 146 124 116
124 230 213 189 212 160 157 145 138 106 100 82 49 73 141 124 144 230 174 122 92 85
194 232 159 175 144 126 110 118 134 134 125 119 115 113 143 180 159 140 104 61 79 78
265 262 160 154 122 136 156 173 146 118 119 112 104 165 158 156 126 91 73 58 66 79
246 281 177 172 145 133 140 146 144 136 118 121 141 186 170 137 85 72 68 55 66 83
286 353 178 124 107 137 160 163 149 125 121 156 163 165 142 113 61 64 66 95 98 83
336 288 158 136 157 184 189 156 137 115 169 145 111 129 128 76 75 78 94 108 83 80
140 283 190 199 217 226 165 135 126 150 147 111 87 78 95 115 108 96 90 85 84 71
189 104 181 236 258 183 131 123 155 130 108 78 97 99 94 95 125 125 96 70 59 40
200 146 182 272 253 132 119 144 145 104 58 82 108 112 73 138 124 115 93 76 58 51

GFSNIL_con_3kmhel_033.txt.gz
Helicity
225 170 152 144 126 138 144 114 118 106 102 99 121 144 145 143 144 118 102 93 91 83
223 163 120 152 215 194 173 132 119 80 65 56 101 134 128 136 132 95 87 48 67 90
148 118 158 172 173 145 118 106 114 111 136 139 128 114 103 113 86 97 87 100 121 130
123 147 175 160 148 138 125 162 164 158 130 111 106 99 124 121 123 116 114 154 145 108
141 202 185 184 163 115 108 139 138 121 121 128 131 124 120 111 138 181 180 168 140 106
159 224 209 206 168 49 82 108 91 101 94 98 86 79 103 141 154 151 119 98 80 53
171 222 243 221 146 76 72 87 85 92 100 104 102 146 141 134 119 102 84 54 42 40
227 320 320 270 200 104 134 157 141 143 123 128 181 153 121 99 67 30 21 20 21 31
259 345 264 264 199 119 123 191 189 160 171 202 137 113 97 63 34 30 30 24 36 57
172 329 319 274 211 131 164 229 206 189 223 144 97 88 59 52 77 85 90 84 85 80
168 246 247 158 163 158 226 204 173 223 159 120 83 60 48 86 128 114 95 88 89 86
87 106 125 183 233 96 192 189 197 176 127 88 45 30 79 106 113 99 91 83 80 63
41 72 101 99 37 129 143 214 215 128 100 42 28 72 91 145 115 112 101 87 63 37
56 113 104 43 132 173 195 192 141 85 31 22 78 94 130 162 134 117 116 82 63 48

GFSNIL_con_3kmhel_036.txt.gz
Helicity
252 229 213 184 158 170 127 85 64 65 74 53 48 70 88 93 91 82 90 86 83 89
268 258 173 121 104 113 110 70 37 23 15 36 58 56 80 88 105 109 111 107 96 82
221 166 123 129 139 122 92 51 54 46 35 54 77 90 101 108 90 121 132 105 96 91
146 112 124 123 121 116 86 74 67 48 104 119 121 108 104 84 66 85 123 151 158 146
102 137 197 114 130 165 146 102 63 89 106 134 146 164 127 124 136 133 139 129 110 92
125 160 175 149 200 192 169 121 84 76 98 116 160 178 154 137 126 114 102 79 64 52
136 165 217 198 225 205 177 181 148 110 128 178 178 182 168 143 112 70 45 31 35 45
160 169 186 164 170 167 188 308 206 129 203 184 193 192 153 104 65 40 36 51 56 55
176 182 186 152 167 115 295 205 133 202 167 184 187 155 101 69 58 57 68 86 92 92
144 90 67 90 129 190 99 23 181 156 191 174 129 90 70 65 85 95 99 107 105 96
60 42 54 83 138 118 109 62 120 176 181 161 119 91 75 78 98 109 121 107 95 96
62 60 123 150 106 111 64 56 150 150 168 130 86 76 109 108 105 109 105 89 94 82
41 65 111 96 72 29 108 171 153 144 112 75 69 97 115 111 78 89 86 92 75 42
48 57 89 114 60 162 194 151 132 94 64 55 84 87 103 89 82 103 101 96 85 77

GFSNIL_con_3kmhel_039.txt.gz
Helicity
193 155 133 129 132 118 111 94 83 71 50 33 26 46 46 80 93 104 136 148 136 122
145 144 141 129 137 147 133 80 43 74 51 18 21 62 77 86 78 104 129 133 135 130
156 120 130 129 126 148 118 66 65 80 69 71 70 63 83 97 110 130 155 153 147 140
127 123 122 136 97 135 131 117 99 93 134 136 116 129 117 124 164 212 210 177 173 145
107 88 97 141 142 187 179 173 156 128 161 151 181 151 120 167 169 172 166 143 119 98
138 136 138 169 161 175 175 156 138 191 174 153 154 139 144 139 155 157 121 104 98 87
153 161 160 141 147 148 141 148 120 169 180 129 119 138 149 170 146 110 101 92 90 93
130 120 133 135 124 119 145 145 299 189 62 76 155 169 161 157 115 106 102 97 99 102
115 128 132 120 106 170 241 234 174 168 165 112 130 149 148 109 107 104 103 103 105 118
135 122 96 90 152 174 141 137 81 64 134 96 116 125 100 105 126 122 119 114 116 128
113 102 81 95 128 134 118 106 75 127 137 132 127 119 128 163 142 120 109 112 122 127
118 90 85 74 93 94 73 96 144 131 132 131 109 112 124 128 100 92 89 79 101 104
107 106 82 53 90 105 95 161 154 147 138 112 106 106 117 110 96 87 71 93 94 87
125 115 99 98 132 159 172 160 166 131 94 107 110 98 112 97 90 82 83 97 109 108

GFSNIL_con_3kmhel_042.txt.gz
Helicity
169 160 151 133 131 130 133 114 89 89 109 111 105 94 93 102 89 84 80 88 112 135
142 126 111 98 109 127 128 151 97 110 127 124 123 104 113 93 87 101 97 107 122 142
131 121 106 118 101 98 109 134 154 181 168 126 115 128 134 116 137 136 110 144 166 172
152 147 115 91 98 124 160 185 185 163 143 137 139 164 172 154 133 141 142 145 141 131
136 146 133 145 170 193 191 196 168 154 165 154 161 182 142 137 148 138 123 130 120 105
144 150 147 166 190 187 185 182 159 181 201 186 226 140 152 136 130 125 122 109 97 97
118 120 126 136 140 142 144 170 180 214 211 201 126 124 136 126 134 126 113 98 101 113
100 113 132 131 116 114 140 161 185 164 154 196 169 187 135 96 113 113 96 102 112 119
127 137 128 120 115 130 131 124 135 125 87 77 112 125 102 100 112 102 103 108 110 115
135 126 119 115 118 127 122 119 105 86 98 144 152 117 106 135 124 116 109 110 108 110
130 134 127 131 115 101 94 95 73 94 137 148 126 119 125 125 118 108 97 96 97 111
149 156 145 141 123 110 109 112 96 120 141 141 114 111 129 126 110 97 81 73 86 96
170 183 152 142 117 123 135 152 170 138 142 109 110 104 113 116 116 102 88 82 85 83
177 180 147 129 127 131 136 145 142 124 100 92 103 100 110 102 120 108 97 93 96 106

GFSNIL_con_3kmhel_045.txt.gz
Helicity
147 175 150 116 112 114 114 107 101 121 145 149 141 128 120 124 108 115 120 98 99 96
157 154 132 92 82 102 94 103 110 130 132 131 131 127 124 127 109 144 107 111 83 85
156 124 108 115 115 124 127 139 152 155 160 157 158 131 119 130 135 106 103 100 106 116
138 126 130 143 151 164 163 161 162 158 157 162 156 136 151 168 133 118 105 116 118 110
144 148 158 182 182 161 142 137 137 150 166 171 162 142 192 164 163 140 113 108 104 107
146 165 165 149 129 124 128 121 120 132 146 156 139 157 169 151 172 133 115 102 118 94
129 120 118 118 119 117 112 118 134 141 140 139 135 169 155 123 154 142 113 105 94 92
101 105 114 128 114 110 123 133 121 115 113 104 95 84 105 135 125 112 101 83 89 90
103 111 126 139 116 114 131 134 138 120 99 82 92 133 133 111 110 88 89 89 81 82
125 135 137 134 117 130 136 123 114 99 102 99 121 145 140 115 89 93 95 90 87 84
126 137 141 149 139 143 149 121 111 120 124 124 129 133 94 89 87 86 88 87 80 74
109 124 150 153 144 139 128 108 117 140 138 117 105 88 86 78 82 85 78 75 69 64
121 147 156 138 139 128 115 124 139 152 123 108 79 81 86 81 88 81 78 67 61 63
148 148 142 138 124 110 134 155 137 126 110 66 62 69 74 80 91 87 80 77 73 74

GFSNIL_con_3kmhel_048.txt.gz
Helicity
148 124 113 150 137 140 128 123 132 125 118 116 102 87 96 90 71 66 79 79 95 101
134 154 156 124 105 108 119 121 130 128 127 124 92 77 77 90 89 85 87 107 73 68
119 145 138 126 127 140 145 148 142 131 122 112 101 69 90 113 94 74 98 74 100 82
155 150 133 139 158 164 137 121 108 101 98 102 106 75 81 92 96 91 94 118 98 93
132 121 137 154 155 138 110 100 94 99 106 108 111 102 147 97 101 109 110 110 114 104
121 130 146 142 118 112 101 91 90 110 115 127 123 119 97 109 135 126 72 128 121 102
116 116 117 116 106 98 99 94 106 114 145 161 126 99 92 77 80 73 89 96 92 83
98 98 106 97 101 108 110 114 121 143 130 129 114 113 83 90 85 85 83 76 84 85
98 89 88 105 113 118 114 114 125 128 132 117 123 189 136 101 89 70 62 75 80 86
97 91 102 116 124 115 118 117 131 130 135 124 141 165 131 98 56 57 68 77 86 87
112 106 109 120 119 123 125 135 124 133 133 139 176 142 106 63 33 55 69 82 82 80
110 101 112 117 125 110 126 105 127 134 114 130 127 119 71 29 45 58 60 70 73 85
99 110 120 120 103 117 104 110 134 144 132 134 91 104 53 39 51 60 60 55 65 97
119 130 120 106 93 100 114 138 140 133 103 92 64 55 64 49 49 56 60 59 66 72

GFSNIL_con_3kmhel_054.txt.gz
Helicity
264 293 276 224 288 214 182 175 185 198 203 184 162 150 140 161 195 224 155 134 134 140
301 259 204 187 188 208 195 195 204 190 180 159 142 139 139 160 185 224 185 110 135 133
310 185 108 216 188 201 203 190 166 173 163 145 137 146 142 143 196 182 120 90 124 154
263 166 161 182 181 190 183 177 186 171 156 144 151 144 149 185 197 217 218 183 161 168
77 107 144 138 168 190 207 197 190 170 150 150 173 226 183 215 212 205 187 139 161 154
120 192 168 176 189 206 197 202 183 153 145 157 208 138 132 166 154 165 142 135 140 147
222 234 210 174 161 152 166 178 163 127 149 227 255 157 145 164 123 99 91 102 108 103
264 237 193 143 119 143 163 149 119 129 244 211 169 162 203 151 155 132 135 120 120 145
224 182 148 107 112 115 132 149 145 235 252 186 157 238 244 228 182 169 150 132 135 113
174 141 111 97 102 117 129 130 171 264 208 144 142 230 220 197 205 161 110 113 102 90
119 98 93 91 107 112 132 172 199 235 165 164 175 233 200 138 131 124 103 107 104 89
112 93 86 101 125 147 143 143 172 211 222 152 223 196 175 151 141 106 92 94 69 79
73 85 101 102 122 156 131 96 223 232 181 178 200 177 155 145 124 92 88 60 63 117
103 95 100 102 128 115 141 172 230 200 136 135 138 182 144 123 119 100 91 84 73 100

GFSNIL_con_3kmhel_057.txt.gz
Helicity
390 361 318 280 374 332 218 243 255 223 195 183 177 164 157 142 137 153 209 228 203 223
291 284 346 367 407 271 180 214 224 204 181 177 166 151 154 152 141 200 195 176 171 189
331 330 257 239 153 176 212 212 206 191 175 163 152 163 206 192 219 241 232 228 212 188
306 254 240 147 174 200 220 221 210 188 172 152 185 202 190 178 165 187 218 223 224 209
274 237 125 144 200 232 239 221 205 190 169 151 212 187 174 164 145 158 166 173 179 189
195 227 265 235 233 214 189 176 185 168 135 160 210 202 170 130 125 145 131 137 145 136
377 263 213 220 186 165 154 139 138 133 157 219 190 166 127 137 145 163 137 108 117 129
321 271 255 304 176 139 129 108 129 154 246 234 193 153 142 156 194 214 209 165 159 189
296 310 267 256 233 125 93 117 151 205 241 203 164 167 162 193 225 242 172 171 179 180
304 242 264 148 87 79 114 152 179 184 198 163 153 164 188 190 180 172 136 129 152 153
355 123 80 63 74 120 144 132 125 136 183 213 170 152 160 165 166 130 120 143 130 112
105 83 44 66 79 111 136 123 131 167 215 210 162 126 137 174 165 132 125 103 88 97
44 45 78 83 81 120 139 144 170 197 198 167 143 103 125 162 160 139 121 82 82 112
58 78 107 136 107 124 156 169 254 255 195 149 140 136 128 126 160 146 130 103 96 102

GFSNIL_con_3kmhel_060.txt.gz
Helicity
452 447 402 443 402 316 274 246 260 139 204 158 145 151 165 150 141 139 149 152 173 189
398 374 406 389 332 322 163 126 211 216 180 139 145 150 135 132 144 165 175 175 172 185
300 351 264 348 385 195 244 200 185 180 170 160 158 138 139 132 155 177 155 155 193 210
364 451 254 213 136 192 241 219 182 174 171 153 146 130 145 148 175 168 141 119 148 160
521 529 168 231 315 165 201 195 223 189 153 146 140 152 162 173 161 147 126 123 148 129
247 283 298 326 310 167 231 186 155 166 167 121 138 162 168 150 146 131 112 138 160 147
346 325 356 254 213 245 216 222 166 106 109 146 183 176 153 144 130 132 154 151 172 169
394 427 343 302 244 387 247 124 62 106 154 187 207 183 162 156 135 168 205 226 247 221
410 351 368 421 269 173 80 67 123 126 128 162 180 160 146 170 169 194 198 175 164 147
476 482 391 180 135 103 79 102 111 117 112 145 172 162 170 163 179 175 157 150 130 134
400 384 193 164 108 68 87 102 109 106 104 146 176 158 147 146 176 177 152 148 142 135
413 203 181 145 95 80 93 110 115 128 155 178 181 147 124 155 156 158 145 144 129 115
194 138 112 102 107 102 109 109 121 144 195 201 184 143 120 147 201 177 155 131 112 99
116 100 71 106 111 119 128 133 137 167 195 202 188 169 124 114 209 174 147 137 122 124

GFSNIL_con_3kmhel_063.txt.gz
Helicity
186 198 263 361 416 451 432 218 299 332 196 198 203 159 149 127 118 129 144 146 138 152
277 360 449 548 448 537 226 214 139 221 123 237 162 165 132 116 114 124 108 116 128 137
373 427 478 530 517 312 347 125 211 223 159 181 206 163 146 127 106 110 112 116 116 128
394 482 534 635 430 222 162 127 194 252 216 235 166 148 115 95 103 128 124 117 114 103
650 611 651 416 164 264 200 208 196 170 165 176 154 92 98 114 144 141 142 128 134 128
508 482 329 276 232 247 262 224 251 206 162 140 90 100 124 137 140 154 160 143 152 150
412 266 291 289 334 326 276 218 182 152 147 104 89 129 147 150 158 175 165 160 183 189
379 383 365 407 368 292 254 212 154 146 96 87 111 131 134 155 176 181 179 199 215 211
426 427 411 367 343 297 220 158 175 134 100 88 102 105 127 173 199 196 203 209 203 195
447 396 370 353 341 236 195 181 122 98 92 86 97 103 126 158 215 216 205 199 202 184
381 387 373 310 205 218 190 124 102 92 92 109 122 108 131 157 213 209 182 182 186 182
369 280 212 177 213 155 138 127 113 106 107 125 155 152 165 180 221 202 164 164 187 181
231 171 176 170 141 144 134 128 119 117 127 129 160 154 168 190 254 212 196 174 175 130
161 165 139 132 132 142 138 144 142 157 164 155 153 167 161 165 224 220 216 192 163 148

GFSNIL_con_3kmhel_069.txt.gz
Helicity
216 169 76 103 143 158 197 250 341 378 417 250 218 122 122 200 157 172 160 166 147 126
203 123 72 88 134 207 251 326 421 429 386 381 29 140 169 192 182 171 166 153 126 121
144 91 84 147 239 293 368 387 318 277 265 42 78 126 184 199 178 173 160 136 119 112
127 124 160 238 290 385 444 418 220 158 110 24 136 172 176 169 179 162 126 115 118 117
207 202 217 284 371 304 379 172 173 129 151 124 128 148 161 161 156 133 120 113 144 129
247 230 349 383 282 214 142 128 139 228 148 146 162 158 163 147 123 131 137 139 151 149
387 463 430 208 147 253 338 144 210 150 192 154 168 182 151 139 133 138 149 157 164 167
535 483 182 207 308 358 156 141 156 173 141 179 185 168 140 136 136 143 150 148 163 178
449 166 208 292 356 73 108 237 151 122 179 174 145 135 126 128 128 127 139 144 155 185
243 257 283 266 106 208 137 114 107 136 149 123 117 120 114 114 135 144 148 161 182 201
270 292 271 180 227 71 138 116 111 128 122 121 113 110 107 110 137 155 159 182 186 204
272 310 296 109 78 101 112 111 108 109 113 127 123 123 119 139 165 177 180 193 204 188
167 141 102 100 88 108 111 94 103 109 115 127 140 140 161 178 226 255 234 211 187 157
156 128 146 153 146 120 115 111 111 126 125 135 147 153 166 187 245 305 282 274 258 224

GFSNIL_con_3kmhel_072.txt.gz
Helicity
104 115 129 136 117 77 97 118 168 197 227 310 328 243 165 71 82 113 149 145 154 164
138 138 146 123 91 76 103 171 237 253 321 329 280 271 5 40 102 138 146 158 149 127
130 113 141 143 114 128 192 225 232 303 334 246 158 89 89 89 115 138 164 153 136 114
100 126 136 169 169 191 218 258 236 289 246 97 127 132 126 89 129 156 141 129 119 102
201 257 268 220 228 261 245 160 219 182 94 96 137 99 86 111 137 141 125 108 108 112
238 199 166 283 282 298 276 108 106 110 103 173 76 99 90 125 130 115 108 98 104 109
288 432 420 419 293 302 184 80 200 104 62 115 101 102 124 121 112 101 102 102 112 123
367 374 384 352 304 220 174 240 85 19 105 104 105 132 113 112 106 101 106 115 129 136
373 374 349 270 191 165 250 42 87 70 78 111 106 189 133 116 105 108 120 131 131 140
312 282 201 158 186 158 79 75 71 86 116 103 80 154 105 113 122 131 140 144 157 177
278 268 248 213 170 143 47 96 90 107 105 93 85 135 107 109 126 144 154 165 179 191
243 245 207 182 84 47 103 111 116 109 97 90 86 118 120 133 155 181 184 190 198 215
211 206 81 85 119 112 122 139 119 101 105 112 101 117 155 166 196 206 232 223 220 223
171 147 147 139 136 144 140 126 138 147 128 127 139 150 186 167 196 210 227 236 238 239

GFSNIL_con_3kmhel_075.txt.gz
Helicity
98 162 176 117 141 182 137 163 138 142 168 196 254 264 244 198 171 122 78 127 129 117
100 132 184 145 169 156 126 179 149 160 222 296 338 304 306 203 90 64 106 113 127 114
103 116 136 214 189 152 186 157 266 275 313 414 285 310 165 41 59 79 126 103 119 132
168 152 192 181 201 189 290 398 398 410 320 185 195 140 63 77 109 113 103 121 119 126
181 294 336 349 367 423 510 415 322 239 106 115 109 99 146 95 85 102 119 111 110 113
314 335 329 325 339 562 551 307 302 136 94 121 48 23 64 76 99 117 106 98 104 99
333 382 415 439 444 430 450 471 290 125 81 93 -55 45 75 102 123 108 95 105 100 98
459 395 334 304 298 366 356 283 125 147 82 -0 69 101 101 121 118 117 116 98 91 104
437 409 399 373 358 333 201 125 67 99 89 123 91 229 187 148 129 124 109 103 104 119
356 384 385 320 284 190 96 81 71 109 108 119 107 176 162 156 127 113 105 113 128 140
332 324 261 244 206 157 146 121 134 112 128 125 133 170 132 134 125 122 117 125 126 155
265 256 225 164 167 144 124 125 106 134 138 143 116 169 172 159 141 160 149 142 143 159
185 161 207 170 152 134 149 164 167 159 165 180 143 241 240 211 188 173 172 162 160 175
236 189 179 193 176 174 171 187 192 210 176 145 180 207 238 214 186 175 178 155 147 156

GFSNIL_con_3kmhel_078.txt.gz
Helicity
153 126 200 257 270 192 193 206 222 229 308 322 370 442 426 305 263 234 208 197 177 123
160 119 240 245 236 191 202 179 195 261 337 404 483 464 395 302 281 308 265 14 111 132
227 146 195 211 199 228 212 181 264 388 520 559 488 402 376 341 373 115 57 123 119 120
274 268 203 252 333 365 361 369 475 705 577 538 399 324 235 170 74 113 119 133 147 161
375 324 311 411 441 413 378 429 586 651 527 414 280 207 124 142 184 140 128 167 158 160
411 413 382 353 361 426 452 490 482 432 473 503 368 175 137 134 75 119 141 156 165 159
445 473 485 470 439 428 402 434 395 400 411 238 310 148 83 85 121 170 195 181 164 146
554 535 471 435 417 425 424 378 427 314 248 205 139 115 85 183 276 294 235 171 147 127
437 454 395 402 514 458 402 350 308 194 159 119 108 254 252 266 259 211 159 146 127 128
394 399 446 534 453 399 315 249 231 103 120 169 221 224 230 218 211 165 147 143 135 133
340 379 411 427 375 292 240 170 119 137 227 228 212 234 216 191 155 142 134 135 143 159
287 351 330 298 265 233 197 193 225 245 223 239 320 329 283 193 203 216 205 160 154 170
237 283 281 264 214 186 210 226 239 307 377 330 269 276 242 203 195 195 180 184 174 149
243 226 226 229 254 262 279 344 355 327 295 266 263 268 266 237 215 210 188 169 158 156

GFSNIL_con_3kmhel_084.txt.gz
Helicity
29 24 41 79 130 137 143 150 140 169 220 270 286 307 379 495 542 662 503 517 355 235
66 88 107 131 183 208 176 177 206 212 223 270 352 488 577 626 670 576 780 382 247 237
158 139 177 221 262 267 242 258 259 250 251 343 486 489 583 688 720 512 447 344 276 251
175 209 241 312 292 332 335 314 306 304 329 420 422 421 530 617 424 442 415 354 255 212
246 249 233 266 323 392 342 312 297 330 308 308 362 410 469 480 413 412 377 287 256 208
324 370 381 385 533 485 190 247 309 294 265 279 314 408 435 466 415 429 320 258 250 188
341 402 460 592 516 204 431 445 369 282 275 343 391 398 482 529 343 324 186 262 184 215
343 418 484 572 376 366 346 433 357 392 395 445 464 454 533 323 373 429 337 177 254 267
432 481 488 449 426 424 425 455 480 416 448 507 455 485 213 314 367 251 260 303 292 274
452 439 393 349 338 384 396 430 437 458 419 467 507 352 374 320 256 328 337 335 292 279
345 333 320 313 328 347 403 459 486 490 493 542 320 414 516 284 360 370 355 317 277 242
229 239 260 292 321 333 362 418 493 497 356 451 380 479 308 374 370 365 340 283 243 205
210 240 273 296 307 314 373 444 462 522 445 421 499 335 363 367 314 349 300 255 213 222
209 236 252 274 300 392 445 444 440 485 467 350 387 384 394 327 279 285 273 240 212 173

GFSNIL_con_3kmhel_087.txt.gz
Helicity
-85 -96 -112 -103 -91 -114 -119 -122 -69 -17 48 75 166 225 247 298 345 397 387 494 528 482
-48 -32 -41 -56 -53 -33 -20 -14 26 101 134 170 200 225 306 376 418 443 521 441 462 498
25 19 -5 -18 14 40 42 63 120 170 215 241 270 258 332 390 418 475 511 505 357 401
65 60 52 50 53 72 114 178 236 233 250 289 281 232 311 392 409 455 485 524 346 325
146 122 128 144 169 198 278 342 335 319 264 235 281 363 370 415 379 425 452 416 372 340
184 214 233 251 292 384 404 427 438 212 277 243 268 322 325 336 351 391 412 444 353 344
263 339 313 285 344 398 467 414 264 107 178 184 248 260 285 340 363 420 451 492 322 313
271 313 337 371 396 427 421 353 312 288 237 255 294 288 286 353 392 418 560 363 407 315
385 388 372 367 367 381 370 366 304 248 298 363 331 334 357 437 548 507 356 298 520 388
379 391 392 358 311 315 307 276 275 308 397 396 491 393 377 591 512 505 399 462 332 308
280 244 253 264 259 248 289 293 307 364 447 544 342 417 472 585 516 325 383 348 363 398
236 241 235 230 249 282 334 350 394 458 501 524 561 463 545 411 478 500 492 407 417 368
211 208 206 206 236 266 320 367 404 494 516 505 468 386 458 553 420 453 406 388 383 440
178 179 195 230 268 313 367 439 486 515 504 512 478 555 505 571 364 317 295 380 397 419

GFSNIL_con_3kmhel_090.txt.gz
Helicity
-6 -25 -37 -64 -87 -126 -153 -175 -158 -131 -83 -36 101 137 169 178 233 264 268 302 335 392
-37 -42 -65 -98 -131 -150 -149 -114 -82 -41 1 40 103 157 205 212 213 267 290 277 337 419
-17 -18 -33 -48 -79 -93 -129 -110 -61 -35 17 83 132 172 209 212 221 215 248 293 342 402
81 58 25 -9 -9 -2 -11 -14 -38 -38 6 54 138 201 233 219 232 115 186 277 340 397
190 169 149 127 95 78 53 40 54 90 128 183 200 189 166 163 189 211 213 315 337 359
186 193 131 108 97 112 141 149 188 191 248 241 226 373 262 162 165 337 350 387 354 361
187 243 213 188 187 212 262 213 221 206 185 195 312 256 215 132 190 311 345 328 308 371
224 237 225 228 234 254 220 232 235 239 294 298 218 215 228 271 300 300 313 379 427 480
158 184 229 263 280 285 252 261 264 298 280 293 223 200 239 284 321 362 420 498 524 513
222 208 228 266 270 245 260 284 270 257 248 187 171 201 273 346 465 463 558 552 544 694
253 238 224 212 195 224 233 221 214 238 277 316 294 365 426 480 496 548 437 531 629 446
165 180 203 197 199 198 220 254 300 316 318 325 336 381 391 439 479 445 492 588 429 512
182 208 213 216 236 241 244 262 287 364 385 439 450 482 497 468 437 519 511 604 583 560
247 257 244 245 236 233 266 318 380 467 495 521 484 453 496 502 493 471 482 528 513 509

GFSNIL_con_3kmhel_093.txt.gz
Helicity
14 -24 -20 6 20 48 74 66 -23 -24 -44 -83 -82 -35 16 60 112 158 189 208 264 295
-8 -46 -62 -66 -63 -72 -83 -77 -59 -77 -118 -138 -106 -55 -3 50 73 123 137 183 232 300
36 24 1 -28 -40 -65 -94 -89 -96 -116 -94 -97 -68 -20 24 60 63 127 157 202 226 229
52 48 57 47 23 16 -14 -28 -43 -39 -34 -32 -7 31 67 68 48 89 138 195 204 168
75 94 108 103 101 91 79 74 66 53 42 55 79 141 77 94 202 250 173 235 264 212
132 172 115 136 110 118 94 79 77 79 87 99 134 152 196 208 219 254 280 270 223 159
123 149 117 126 113 139 109 84 79 89 91 116 134 169 207 149 195 254 256 223 220 209
109 109 137 154 142 127 115 114 107 114 112 118 112 138 168 198 232 197 188 213 224 258
115 117 109 112 115 111 98 77 96 137 156 150 187 181 217 232 194 143 184 239 413 467
95 89 101 105 97 83 88 106 141 146 177 187 192 175 123 138 187 261 347 404 439 411
114 122 129 142 153 180 209 227 231 226 200 201 204 186 208 302 323 389 417 383 434 461
143 176 224 241 234 233 258 256 255 251 251 251 261 312 316 336 396 459 505 503 508 529
218 249 265 273 281 299 297 310 306 313 311 326 301 339 340 328 345 431 440 492 545 539
217 218 220 235 235 236 258 287 312 348 361 376 369 380 434 436 404 375 389 384 380 393

GFSNIL_con_3kmhel_096.txt.gz
Helicity
42 35 31 46 35 94 179 173 205 182 117 61 21 -51 -70 -38 -9 -0 6 18 69 144
3 7 16 2 9 33 69 95 119 121 71 13 -8 -44 -54 -24 -35 -5 -0 18 52 139
32 -2 -8 -13 20 22 2 -0 -4 -3 20 27 -0 -20 -36 -35 -25 -24 6 44 48 65
43 30 16 23 16 22 21 30 26 35 20 15 40 40 33 18 13 31 34 48 113 112
30 35 33 29 26 32 38 34 41 50 64 73 79 82 102 108 141 125 125 207 223 167
63 57 60 47 33 43 48 43 48 52 51 57 72 84 95 160 162 186 215 201 159 184
85 82 63 65 59 59 74 63 66 66 67 70 74 73 77 80 72 81 115 141 189 171
64 68 68 71 69 41 45 78 93 71 63 67 83 109 109 136 159 153 165 181 172 138
28 36 43 39 61 66 79 84 88 93 91 97 134 157 166 175 196 192 182 175 252 280
50 56 66 65 65 75 95 100 100 125 174 277 327 289 218 181 212 250 265 266 261 283
99 103 107 111 125 194 272 316 327 345 339 309 292 287 262 287 259 283 302 318 332 365
194 235 300 336 326 323 364 392 379 366 354 331 337 355 285 222 253 299 334 349 362 350
302 346 384 366 367 388 396 393 376 411 397 371 306 336 307 256 232 260 237 281 315 369
421 410 359 358 346 335 339 350 366 388 391 392 350 332 358 338 264 220 222 238 251 259

GFSNIL_con_3kmhel_099.txt.gz
Helicity
74 88 83 52 67 114 68 142 170 204 199 72 90 80 91 126 79 80 49 -1 -5 33
61 48 74 43 67 45 21 37 31 30 22 -4 48 55 63 36 21 63 47 -14 1 57
36 50 45 50 55 46 29 41 84 112 126 119 102 78 64 35 47 41 65 83 91 97
16 13 21 26 34 34 43 64 81 106 146 145 138 116 69 25 40 50 59 92 121 120
20 14 15 6 7 27 44 53 65 89 93 86 89 75 64 67 84 99 99 92 122 167
50 34 28 32 29 38 30 38 36 46 65 68 69 75 77 91 91 106 121 138 153 214
67 49 41 38 47 49 66 59 51 56 59 71 66 68 79 84 112 129 145 185 188 179
79 65 55 59 62 63 74 68 51 62 65 73 97 113 103 138 159 171 182 186 318 362
72 63 69 75 72 67 63 64 60 67 86 107 258 278 244 225 211 266 303 297 288 283
54 59 65 64 64 64 74 111 289 377 371 374 341 325 336 341 322 316 322 324 318 280
78 85 92 142 325 405 403 412 383 413 420 424 399 362 334 338 326 356 369 304 300 265
180 370 472 498 504 505 534 548 516 498 478 456 433 418 397 335 326 347 331 337 276 268
537 491 510 505 508 513 537 514 490 522 535 503 452 445 370 286 250 274 241 248 247 279
526 524 481 477 475 487 482 487 507 498 471 453 417 429 447 341 221 158 169 183 161 156

GFSNIL_con_3kmhel_102.txt.gz
Helicity
84 44 80 135 133 97 98 130 99 93 110 70 17 100 43 -22 55 64 136 240 260 135
60 61 104 53 111 125 207 206 168 149 50 35 82 42 -20 41 50 124 142 162 127 96
50 32 33 69 83 84 82 71 151 168 87 53 95 92 55 30 29 43 75 120 139 174
45 29 45 40 42 56 50 36 57 98 114 73 86 85 70 84 68 32 82 155 197 172
31 50 47 35 41 26 41 53 81 85 101 128 126 96 87 96 117 120 130 128 146 170
62 45 58 40 40 55 49 58 53 84 71 61 79 101 136 147 137 133 122 132 142 152
120 82 67 65 57 63 60 50 41 41 64 72 84 90 96 106 113 110 119 151 255 289
135 92 94 104 98 89 93 80 70 66 61 70 78 134 135 131 161 260 300 324 356 377
152 135 104 104 108 124 116 104 94 118 245 351 293 280 230 280 298 342 331 341 366 312
121 117 117 115 112 118 201 343 376 368 378 383 377 383 387 423 418 421 447 416 380 325
106 94 94 208 431 462 479 476 469 492 503 530 511 465 458 441 387 390 422 451 351 387
164 452 532 540 548 552 623 605 573 546 555 553 517 452 422 388 383 410 413 351 346 305
707 654 629 612 616 627 658 676 627 631 601 579 544 495 426 339 307 296 169 193 255 336
811 747 641 663 618 618 654 686 675 639 592 554 502 476 402 293 195 176 197 230 231 196

GFSNIL_con_3kmhel_105.txt.gz
Helicity
75 63 83 171 215 268 262 450 365 433 456 551 385 288 204 162 127 126 57 58 123 146
111 79 59 67 68 89 198 283 417 482 392 181 207 170 127 89 95 84 41 -42 -56 96
65 85 92 94 92 84 89 91 137 103 154 124 90 93 60 73 39 19 -69 -20 68 114
86 79 103 78 68 90 90 90 87 130 127 61 57 29 36 26 57 68 87 107 118 124
70 92 80 72 85 102 84 71 62 80 70 49 24 18 59 96 95 74 67 104 130 132
47 64 64 60 60 75 79 82 94 100 93 77 76 68 82 110 93 97 101 113 130 153
70 65 68 53 41 42 55 62 71 77 79 74 79 88 89 87 97 98 183 205 232 262
100 94 98 95 84 60 68 68 61 97 70 77 110 141 138 159 184 241 273 295 327 352
107 100 123 100 97 115 109 99 179 273 283 289 255 239 242 293 335 356 386 451 461 397
131 100 90 93 86 90 246 319 364 381 377 382 336 345 386 407 414 414 412 408 439 490
150 121 122 239 351 383 416 428 442 466 468 492 482 447 466 483 509 602 618 572 521 499
191 424 484 500 493 482 548 566 565 546 540 508 534 471 487 526 592 628 548 507 478 388
557 601 628 662 648 636 648 642 653 707 664 628 596 552 538 479 406 394 362 359 258 218
627 680 659 705 698 732 761 759 750 761 735 737 637 574 503 416 343 291 282 215 142 197

GFSNIL_con_3kmhel_108.txt.gz
Helicity
52 38 58 52 115 199 271 455 495 411 367 411 410 374 336 314 416 383 317 264 178 126
31 -8 33 118 133 148 196 245 313 451 498 571 534 421 498 394 351 307 234 165 132 104
70 57 51 57 141 186 149 238 390 317 380 492 474 471 403 328 253 155 101 108 102 72
44 92 87 73 75 83 164 227 278 392 408 395 412 211 207 175 123 89 36 43 31 -20
60 46 83 50 58 79 72 82 117 152 169 118 66 112 87 60 60 37 26 15 53 82
43 67 50 65 44 62 81 70 62 81 62 53 71 101 60 45 34 81 74 94 91 115
37 42 45 52 56 61 56 60 49 37 32 39 56 44 39 35 51 91 169 180 195 190
67 57 41 46 49 44 47 38 40 34 18 19 24 25 32 59 87 217 261 286 284 272
125 92 82 45 48 64 73 78 136 157 190 201 168 116 164 267 303 333 358 371 360 337
143 120 97 88 79 132 240 261 295 306 323 316 301 304 360 402 392 417 432 439 461 501
123 134 131 190 278 311 352 360 354 340 323 349 360 417 471 519 496 542 574 644 562 483
122 238 337 363 380 382 438 426 424 402 395 400 406 433 507 590 637 656 604 522 558 585
357 392 426 450 462 481 512 530 518 535 496 498 535 506 530 627 640 661 655 614 580 583
473 468 466 506 539 569 620 676 691 749 719 675 618 627 667 623 625 502 484 464 391 244

GFSNIL_con_3kmhel_111.txt.gz
Helicity
154 112 50 12 33 62 116 194 445 357 344 286 348 399 387 355 388 450 473 409 369 294
136 76 42 26 48 18 59 229 205 425 398 407 398 436 393 371 469 431 318 286 331 279
124 65 77 63 76 117 173 186 236 343 328 392 402 433 341 373 346 321 418 285 169 188
113 62 71 71 72 113 182 212 336 338 317 471 449 478 360 330 298 322 190 181 156 128
65 80 34 54 72 109 119 142 206 265 360 370 459 416 413 418 305 213 168 138 117 46
40 53 43 32 31 65 94 108 134 198 277 387 380 397 266 133 169 139 107 126 93 85
41 57 52 56 38 29 54 79 82 103 145 120 177 163 151 120 137 169 164 169 160 156
50 65 71 59 51 31 28 34 50 53 44 45 49 65 91 119 164 200 213 218 217 187
74 88 93 82 67 75 56 45 63 89 90 103 93 79 97 183 231 247 271 290 293 296
78 99 108 109 104 112 154 165 177 181 182 163 122 151 267 323 317 355 375 413 432 425
106 110 123 167 222 238 244 251 246 240 237 262 264 287 379 446 437 482 517 503 503 505
149 193 243 289 296 287 311 310 299 269 264 275 305 350 429 509 528 593 634 614 581 612
227 293 289 304 330 354 364 364 356 365 341 350 398 445 513 568 604 703 741 768 723 681
302 322 341 359 345 375 425 458 449 449 418 435 445 523 625 722 827 827 828 829 816 690

GFSNIL_con_3kmhel_114.txt.gz
Helicity
172 193 153 142 135 97 132 166 122 109 137 196 177 208 232 287 295 318 312 299 349 393
140 143 132 119 66 69 86 89 94 131 174 252 206 265 276 342 416 401 279 326 305 412
108 98 87 61 24 26 41 96 78 96 188 409 325 342 364 380 470 490 408 298 284 274
85 83 69 21 26 -18 10 76 101 161 304 344 561 400 378 375 360 435 391 326 271 325
84 89 77 43 61 40 32 114 140 151 176 237 470 419 430 401 475 355 345 289 275 322
72 84 62 38 52 55 35 73 104 173 242 192 186 332 458 399 346 293 258 300 291 164
70 74 58 39 41 49 44 39 82 132 200 236 316 284 393 295 279 463 405 360 276 254
75 78 79 54 37 41 49 39 41 68 76 160 251 355 342 295 323 269 319 320 309 248
85 88 71 63 57 48 43 65 72 65 74 103 108 83 131 161 258 292 312 329 319 269
94 91 91 91 88 82 128 136 145 153 138 116 80 106 189 241 282 297 268 259 284 311
89 87 105 132 189 198 214 211 193 191 189 190 187 213 309 365 356 396 392 395 391 394
92 123 197 215 221 220 242 274 284 243 239 246 259 311 388 462 458 499 496 465 445 442
142 149 176 220 259 281 304 312 306 329 325 320 326 331 360 448 506 565 589 604 648 639
159 201 229 258 280 309 322 350 371 398 378 364 323 350 439 499 576 656 729 727 706 693

GFSNIL_con_3kmhel_117.txt.gz
Helicity
132 179 164 171 140 109 126 104 99 111 121 129 175 165 157 205 239 257 284 245 254 279
120 159 166 168 133 123 93 60 124 110 90 96 176 175 113 151 213 252 304 305 293 292
105 131 137 114 90 44 38 53 113 80 137 116 68 156 151 179 204 269 321 353 341 383
114 123 136 77 35 7 3 1 -4 4 92 185 234 149 223 249 249 279 364 396 443 517
100 121 100 52 23 23 37 -2 -40 11 63 158 200 336 342 280 311 295 403 447 496 490
78 109 58 28 28 34 48 53 18 45 40 126 203 233 341 333 374 390 385 356 399 374
80 101 48 37 25 19 32 70 63 56 45 120 224 286 260 449 486 317 301 280 359 159
84 101 61 46 19 29 23 26 60 75 95 71 117 197 172 301 575 484 579 526 486 483
114 104 63 52 36 33 37 34 60 83 89 106 167 319 393 520 362 416 533 616 467 372
117 110 85 71 61 55 89 89 91 100 117 135 132 173 300 500 419 386 280 322 367 351
129 112 106 111 153 160 163 152 132 149 142 167 185 271 325 319 315 393 362 348 354 350
126 130 177 217 210 204 243 258 245 214 211 225 242 271 333 356 380 412 406 425 383 352
118 167 205 252 282 298 327 339 330 325 287 255 286 311 356 412 398 438 452 473 477 416
206 215 234 291 310 352 364 377 381 381 341 314 280 319 382 427 477 505 554 556 541 489

GFSNIL_con_3kmhel_123.txt.gz
Helicity
77 133 115 80 103 145 152 168 174 176 170 154 204 285 314 416 392 415 339 248 162 254
93 99 93 76 99 92 174 153 171 170 169 154 196 257 298 468 443 367 391 283 171 216
73 118 83 74 92 97 123 163 170 162 151 148 164 210 271 299 343 425 263 193 122 152
71 53 91 113 100 106 126 121 170 160 168 150 159 171 211 240 252 267 273 237 140 153
89 64 120 147 106 124 119 130 158 142 141 185 183 201 182 259 264 266 305 255 124 139
102 80 96 119 108 124 127 103 100 99 110 173 214 189 222 236 261 310 271 160 83 82
114 107 117 132 139 151 121 107 99 98 97 130 151 163 184 205 253 189 191 188 164 162
112 100 124 138 149 143 120 109 113 117 118 115 104 122 153 174 211 228 256 342 376 345
131 100 104 132 140 116 123 140 116 132 196 149 138 103 94 166 196 319 501 692 688 681
137 81 79 140 146 140 165 186 209 189 168 162 163 271 368 493 449 627 747 752 799 896
103 81 98 144 161 231 215 210 223 201 169 162 196 293 461 474 439 509 581 549 574 704
155 83 106 184 283 260 274 253 246 215 205 176 169 259 351 380 405 400 415 405 450 529
173 108 173 264 288 343 320 295 285 294 256 208 199 215 333 392 383 404 381 400 428 404
108 193 276 307 318 375 375 368 354 370 342 306 274 269 290 331 375 377 407 379 366 327

GFSNIL_con_3kmhel_126.txt.gz
Helicity
66 66 48 118 130 143 168 158 173 207 262 276 248 181 196 185 289 303 347 330 398 269
60 62 76 115 95 125 176 152 154 203 203 196 180 166 165 180 246 320 385 412 425 174
67 37 84 115 132 133 146 152 180 211 190 206 184 164 138 151 217 305 315 475 193 84
85 50 64 128 100 110 149 172 182 197 178 194 173 144 151 155 228 257 333 274 241 293
72 100 66 83 105 116 169 180 175 192 172 179 145 141 115 139 178 245 329 335 425 477
74 87 89 67 130 124 164 167 186 185 186 179 162 145 130 125 129 168 233 326 406 431
64 72 85 92 117 142 165 178 146 164 154 178 180 177 170 154 150 126 199 275 269 205
43 75 90 108 102 151 160 162 148 162 148 148 187 181 156 143 166 195 233 318 388 366
92 70 91 113 163 148 140 172 188 197 191 211 257 247 155 146 160 166 215 294 399 357
91 61 73 93 174 144 140 255 268 248 233 229 202 136 175 233 265 264 462 493 560 631
65 107 91 95 160 231 260 286 264 247 223 213 205 215 318 334 323 360 464 579 674 730
44 119 86 129 347 328 338 305 294 250 218 208 220 235 297 352 359 368 420 456 559 742
17 103 40 84 424 403 372 342 327 311 256 224 228 215 265 306 320 409 375 382 441 448
34 53 52 35 430 464 423 407 368 363 339 293 254 226 245 259 344 365 352 350 335 336

GFSNIL_con_3kmhel_129.txt.gz
Helicity
55 59 84 96 113 106 115 121 122 128 158 209 211 239 237 254 242 221 277 247 321 401
70 57 45 37 91 123 136 131 150 194 208 246 251 256 269 254 242 214 273 362 531 318
68 69 75 20 46 105 98 126 168 189 197 235 273 256 233 203 167 154 199 313 473 339
29 77 74 64 19 47 115 133 167 159 182 192 195 190 225 166 123 112 106 215 266 324
22 47 89 68 -24 75 103 150 161 158 186 187 168 173 173 146 109 88 147 192 280 384
15 20 74 93 7 50 124 169 168 173 169 176 151 155 144 125 123 118 122 160 231 216
-8 18 39 87 85 15 87 176 188 172 155 168 154 132 127 127 127 113 123 136 125 186
-9 -13 29 55 108 87 62 193 219 163 141 151 161 157 120 124 145 119 108 125 139 235
-4 -21 13 40 126 90 80 119 201 148 149 158 159 121 137 143 130 104 107 133 161 185
-4 -16 7 53 72 74 108 196 248 241 238 249 213 179 123 146 126 117 113 139 246 380
-3 -7 5 49 32 168 214 296 287 265 245 253 219 179 228 326 295 300 277 302 329 384
-1 20 21 51 41 187 226 351 346 306 263 266 233 210 231 312 349 350 312 276 317 420
11 16 26 34 63 57 195 416 425 391 306 266 247 217 220 252 311 336 328 319 340 364
22 41 41 28 -6 58 191 562 485 432 378 314 250 216 211 234 276 297 339 320 339 378

GFSNIL_con_3kmhel_132.txt.gz
Helicity
54 48 71 53 95 98 89 105 116 105 146 167 164 195 233 258 254 245 254 271 243 246
43 65 65 64 65 46 86 116 131 145 160 169 163 183 206 231 248 240 231 223 219 266
-3 20 35 63 61 30 53 125 124 138 145 162 176 170 199 194 209 233 229 186 178 220
9 -0 5 39 50 43 43 114 103 113 135 157 168 183 180 197 240 256 226 186 150 209
10 7 9 19 64 73 58 73 76 144 139 161 169 204 211 219 232 196 167 112 101 142
-14 -4 13 18 43 83 65 14 112 141 157 155 163 183 179 167 166 156 114 83 127 129
-22 -18 -20 8 21 58 87 51 48 147 139 155 156 162 177 139 153 140 107 86 109 117
-16 -12 -22 -7 9 38 77 91 18 133 190 165 156 153 173 139 137 134 114 117 88 112
-20 -8 6 -2 15 25 79 120 79 121 221 202 179 119 153 166 162 134 120 117 94 93
8 15 15 16 19 17 79 94 114 98 184 278 186 132 116 141 178 154 132 128 102 119
16 43 23 20 24 22 45 65 85 111 203 221 238 167 125 172 253 250 225 183 154 135
52 45 17 22 25 15 50 70 -45 131 343 329 262 181 217 292 328 316 259 192 181 138
38 35 10 19 20 8 49 56 41 66 341 332 289 232 259 300 339 349 286 259 214 194
39 31 10 5 15 29 34 47 86 58 184 434 321 268 241 258 309 304 304 284 247 201